N641CP KIAD-KSCX

Flight info

Callsign N641CP
Flight time 2h 32m
Altitude 8500
Route CLTCH3 MAULS Q40 ALEAN VXV
Aircraft C208/L-SDFGR/C

Departure

Time 2026-04-14 16:14
Airport Washington Dulles International Airport (KIAD)

Arrival

Time 2026-04-14 18:46
Airport Scott Municipal Airport (KSCX)
Time Latitude Longitude Altitude Speed Heading
2026-04-14 15:58 38.96968 -77.45365 285 ft 0 kts 231°
2026-04-14 16:10 38.96964 -77.45384 285 ft 6 kts 291°
2026-04-14 16:11 38.97012 -77.45451 286 ft 14 kts 330°
2026-04-14 16:11 38.97037 -77.45574 288 ft 19 kts 246°
2026-04-14 16:11 38.96954 -77.45705 291 ft 16 kts 232°
2026-04-14 16:11 38.96928 -77.45868 289 ft 21 kts 264°
2026-04-14 16:12 38.96887 -77.45934 288 ft 0 kts 184°
2026-04-14 16:12 38.96818 -77.45936 288 ft 32 kts 181°
2026-04-14 16:12 38.96432 -77.45940 283 ft 77 kts 181°
2026-04-14 16:12 38.95814 -77.45960 358 ft 100 kts 182°
2026-04-14 16:13 38.95046 -77.46015 442 ft 118 kts 185°
2026-04-14 16:13 38.94183 -77.46113 568 ft 130 kts 186°
2026-04-14 16:13 38.93272 -77.46233 704 ft 134 kts 187°
2026-04-14 16:13 38.92336 -77.46334 833 ft 135 kts 187°
2026-04-14 16:14 38.91440 -77.46600 956 ft 133 kts 214°
2026-04-14 16:14 38.90853 -77.47518 1081 ft 135 kts 227°
2026-04-14 16:14 38.90107 -77.48276 1201 ft 140 kts 214°
2026-04-14 16:14 38.89290 -77.48981 1313 ft 143 kts 214°
2026-04-14 16:15 38.88743 -77.49451 1389 ft 143 kts 212°
2026-04-14 16:15 38.87648 -77.50369 1556 ft 141 kts 212°
2026-04-14 16:15 38.87095 -77.50832 1642 ft 141 kts 213°
2026-04-14 16:15 38.86269 -77.51528 1768 ft 144 kts 214°
2026-04-14 16:16 38.85161 -77.52452 1938 ft 143 kts 211°
2026-04-14 16:16 38.84309 -77.53149 2075 ft 150 kts 213°
2026-04-14 16:16 38.83721 -77.53648 2162 ft 148 kts 214°
2026-04-14 16:16 38.82865 -77.54376 2292 ft 146 kts 214°
2026-04-14 16:17 38.82026 -77.55072 2418 ft 145 kts 214°
2026-04-14 16:17 38.81173 -77.55780 2550 ft 148 kts 213°
2026-04-14 16:17 38.80313 -77.56505 2667 ft 148 kts 213°
2026-04-14 16:17 38.79455 -77.57214 2785 ft 144 kts 214°
2026-04-14 16:18 38.78611 -77.57900 2900 ft 143 kts 214°
2026-04-14 16:18 38.77753 -77.58610 3022 ft 148 kts 216°
2026-04-14 16:18 38.76914 -77.59369 3158 ft 147 kts 215°
2026-04-14 16:18 38.76050 -77.60063 3274 ft 148 kts 211°
2026-04-14 16:19 38.75190 -77.60769 3395 ft 146 kts 215°
2026-04-14 16:19 38.74347 -77.61470 3514 ft 143 kts 214°
2026-04-14 16:19 38.73494 -77.62174 3657 ft 148 kts 215°
2026-04-14 16:19 38.72622 -77.62916 3767 ft 149 kts 216°
2026-04-14 16:20 38.71750 -77.63638 3894 ft 152 kts 216°
2026-04-14 16:20 38.70863 -77.64363 4010 ft 150 kts 216°
2026-04-14 16:20 38.69979 -77.65100 4135 ft 152 kts 217°
2026-04-14 16:20 38.69107 -77.65832 4247 ft 152 kts 218°
2026-04-14 16:21 38.68222 -77.66564 4381 ft 152 kts 218°
2026-04-14 16:21 38.67322 -77.67314 4506 ft 157 kts 219°
2026-04-14 16:21 38.66404 -77.68076 4633 ft 158 kts 219°
2026-04-14 16:21 38.65489 -77.68833 4764 ft 156 kts 220°
2026-04-14 16:22 38.64574 -77.69592 4896 ft 158 kts 220°
2026-04-14 16:22 38.63654 -77.70358 5002 ft 156 kts 220°
2026-04-14 16:22 38.62765 -77.71092 5209 ft 149 kts 220°
2026-04-14 16:22 38.61908 -77.71799 5425 ft 145 kts 220°
2026-04-14 16:23 38.61067 -77.72507 5632 ft 143 kts 220°
2026-04-14 16:23 38.60243 -77.73188 5853 ft 139 kts 219°
2026-04-14 16:23 38.59427 -77.73856 6074 ft 140 kts 218°
2026-04-14 16:23 38.58609 -77.74532 6293 ft 138 kts 218°
2026-04-14 16:24 38.57808 -77.75202 6518 ft 138 kts 218°
2026-04-14 16:24 38.56960 -77.75901 6502 ft 150 kts 217°
2026-04-14 16:24 38.56062 -77.76642 6511 ft 156 kts 217°
2026-04-14 16:24 38.55137 -77.77412 6511 ft 161 kts 217°
2026-04-14 16:25 38.54194 -77.78190 6503 ft 161 kts 217°
2026-04-14 16:25 38.53257 -77.78967 6509 ft 161 kts 217°
2026-04-14 16:25 38.52379 -77.79826 6502 ft 157 kts 231°
2026-04-14 16:25 38.51663 -77.80883 6501 ft 158 kts 231°
2026-04-14 16:26 38.50920 -77.81910 6516 ft 157 kts 230°
2026-04-14 16:26 38.50181 -77.82944 6514 ft 158 kts 231°
2026-04-14 16:26 38.49436 -77.83987 6516 ft 161 kts 231°
2026-04-14 16:26 38.48682 -77.85060 6509 ft 162 kts 231°
2026-04-14 16:27 38.47925 -77.86133 6504 ft 162 kts 230°
2026-04-14 16:27 38.47165 -77.87187 6501 ft 161 kts 230°
2026-04-14 16:27 38.46416 -77.88241 6503 ft 160 kts 231°
2026-04-14 16:27 38.45664 -77.89299 6502 ft 161 kts 230°
2026-04-14 16:28 38.44914 -77.90354 6498 ft 161 kts 231°
2026-04-14 16:28 38.44262 -77.91475 6509 ft 159 kts 238°
2026-04-14 16:28 38.43627 -77.92640 6504 ft 160 kts 237°
2026-04-14 16:28 38.42986 -77.93786 6502 ft 158 kts 237°
2026-04-14 16:29 38.42350 -77.94926 6503 ft 158 kts 236°
2026-04-14 16:29 38.41718 -77.96079 6505 ft 159 kts 239°
2026-04-14 16:29 38.41085 -77.97226 6503 ft 158 kts 238°
2026-04-14 16:29 38.40447 -77.98372 6509 ft 160 kts 238°
2026-04-14 16:30 38.39810 -77.99520 6503 ft 158 kts 238°
2026-04-14 16:30 38.39176 -78.00661 6505 ft 159 kts 238°
2026-04-14 16:30 38.38536 -78.01814 6505 ft 160 kts 238°
2026-04-14 16:30 38.37893 -78.02970 6504 ft 160 kts 238°
2026-04-14 16:31 38.37250 -78.04128 6504 ft 160 kts 238°
2026-04-14 16:31 38.36617 -78.05276 6506 ft 157 kts 238°
2026-04-14 16:31 38.35987 -78.06411 6505 ft 156 kts 237°
2026-04-14 16:31 38.35356 -78.07540 6506 ft 156 kts 238°
2026-04-14 16:32 38.34732 -78.08666 6503 ft 155 kts 238°
2026-04-14 16:32 38.34109 -78.09788 6507 ft 156 kts 237°
2026-04-14 16:32 38.33483 -78.10915 6506 ft 155 kts 238°
2026-04-14 16:32 38.32856 -78.12036 6509 ft 157 kts 238°
2026-04-14 16:33 38.32223 -78.13180 6506 ft 159 kts 238°
2026-04-14 16:33 38.31585 -78.14326 6511 ft 159 kts 237°
2026-04-14 16:33 38.30943 -78.15477 6507 ft 159 kts 238°
2026-04-14 16:33 38.30305 -78.16628 6506 ft 159 kts 237°
2026-04-14 16:34 38.29666 -78.17772 6502 ft 158 kts 238°
2026-04-14 16:34 38.29039 -78.18896 6496 ft 157 kts 237°
2026-04-14 16:34 38.28407 -78.20031 6493 ft 157 kts 238°
2026-04-14 16:34 38.27777 -78.21160 6491 ft 156 kts 237°
2026-04-14 16:35 38.27149 -78.22281 6498 ft 156 kts 237°
2026-04-14 16:35 38.26522 -78.23403 6496 ft 156 kts 238°
2026-04-14 16:35 38.25898 -78.24526 6494 ft 155 kts 237°
2026-04-14 16:35 38.25271 -78.25643 6494 ft 155 kts 237°
2026-04-14 16:36 38.24647 -78.26758 6501 ft 155 kts 238°
2026-04-14 16:36 38.24013 -78.27893 6505 ft 159 kts 237°
2026-04-14 16:36 38.23371 -78.29043 6503 ft 159 kts 237°
2026-04-14 16:36 38.22730 -78.30188 6497 ft 158 kts 237°
2026-04-14 16:37 38.22115 -78.31282 6697 ft 149 kts 237°
2026-04-14 16:37 38.21521 -78.32348 6904 ft 145 kts 237°
2026-04-14 16:37 38.20948 -78.33373 7113 ft 140 kts 238°
2026-04-14 16:37 38.20390 -78.34368 7323 ft 137 kts 238°
2026-04-14 16:38 38.19835 -78.35356 7540 ft 138 kts 238°
2026-04-14 16:38 38.19280 -78.36348 7756 ft 137 kts 237°
2026-04-14 16:38 38.18737 -78.37312 7968 ft 135 kts 238°
2026-04-14 16:38 38.18197 -78.38274 8187 ft 132 kts 238°
2026-04-14 16:39 38.17667 -78.39223 8402 ft 131 kts 240°
2026-04-14 16:39 38.17304 -78.40292 8509 ft 136 kts 251°
2026-04-14 16:39 38.16949 -78.41445 8517 ft 144 kts 250°
2026-04-14 16:39 38.16575 -78.42654 8522 ft 149 kts 250°
2026-04-14 16:40 38.16188 -78.43891 8521 ft 152 kts 250°
2026-04-14 16:40 38.15798 -78.45147 8522 ft 153 kts 250°
2026-04-14 16:40 38.15406 -78.46408 8523 ft 153 kts 250°
2026-04-14 16:40 38.15013 -78.47676 8521 ft 155 kts 250°
2026-04-14 16:41 38.14615 -78.48953 8524 ft 156 kts 250°
2026-04-14 16:41 38.14216 -78.50242 8524 ft 157 kts 250°
2026-04-14 16:41 38.13808 -78.51539 8519 ft 158 kts 250°
2026-04-14 16:41 38.13407 -78.52835 8520 ft 158 kts 250°
2026-04-14 16:42 38.13003 -78.54131 8522 ft 158 kts 250°
2026-04-14 16:42 38.12597 -78.55429 8525 ft 158 kts 250°
2026-04-14 16:42 38.12191 -78.56729 8514 ft 158 kts 250°
2026-04-14 16:42 38.11787 -78.58023 8513 ft 157 kts 250°
2026-04-14 16:43 38.11383 -78.59312 8514 ft 158 kts 250°
2026-04-14 16:43 38.10979 -78.60608 8516 ft 158 kts 250°
2026-04-14 16:43 38.10576 -78.61904 8511 ft 157 kts 250°
2026-04-14 16:43 38.10176 -78.63173 8508 ft 158 kts 250°
2026-04-14 16:44 38.09771 -78.64463 8502 ft 157 kts 250°
2026-04-14 16:44 38.09370 -78.65748 8501 ft 157 kts 250°
2026-04-14 16:44 38.08966 -78.67035 8500 ft 157 kts 250°
2026-04-14 16:45 38.08159 -78.69613 8499 ft 157 kts 250°
2026-04-14 16:45 38.07752 -78.70903 8498 ft 158 kts 250°
2026-04-14 16:45 38.07346 -78.72201 8498 ft 159 kts 250°
2026-04-14 16:45 38.06938 -78.73504 8501 ft 159 kts 250°
2026-04-14 16:46 38.06529 -78.74807 8504 ft 159 kts 250°
2026-04-14 16:46 38.06116 -78.76109 8508 ft 159 kts 250°
2026-04-14 16:46 38.05712 -78.77409 8506 ft 157 kts 250°
2026-04-14 16:46 38.05310 -78.78683 8505 ft 155 kts 250°
2026-04-14 16:47 38.04907 -78.79954 8501 ft 156 kts 251°
2026-04-14 16:47 38.04504 -78.81238 8506 ft 157 kts 250°
2026-04-14 16:47 38.04094 -78.82533 8508 ft 158 kts 250°
2026-04-14 16:47 38.03681 -78.83832 8504 ft 159 kts 250°
2026-04-14 16:48 38.03414 -78.84692 8507 ft 158 kts 251°
2026-04-14 16:48 38.02861 -78.86434 8509 ft 160 kts 251°
2026-04-14 16:48 38.02458 -78.87747 8517 ft 160 kts 250°
2026-04-14 16:48 38.02043 -78.89063 8512 ft 160 kts 250°
2026-04-14 16:49 38.01623 -78.90374 8513 ft 160 kts 250°
2026-04-14 16:49 38.01210 -78.91678 8510 ft 159 kts 250°
2026-04-14 16:49 38.00800 -78.92972 8506 ft 158 kts 250°
2026-04-14 16:49 38.00393 -78.94257 8506 ft 157 kts 250°
2026-04-14 16:50 37.99989 -78.95546 8507 ft 158 kts 250°
2026-04-14 16:50 37.99579 -78.96840 8504 ft 158 kts 250°
2026-04-14 16:50 37.99173 -78.98109 8507 ft 157 kts 250°
2026-04-14 16:50 37.98767 -78.99393 8503 ft 156 kts 250°
2026-04-14 16:51 37.98363 -79.00668 8503 ft 156 kts 250°
2026-04-14 16:51 37.97959 -79.01941 8501 ft 155 kts 250°
2026-04-14 16:51 37.97559 -79.03204 8501 ft 154 kts 250°
2026-04-14 16:51 37.97158 -79.04467 8501 ft 155 kts 250°
2026-04-14 16:52 37.96754 -79.05739 8503 ft 157 kts 249°
2026-04-14 16:52 37.96348 -79.07030 8497 ft 157 kts 250°
2026-04-14 16:52 37.95936 -79.08311 8504 ft 157 kts 250°
2026-04-14 16:52 37.95527 -79.09595 8498 ft 157 kts 251°
2026-04-14 16:53 37.95119 -79.10879 8500 ft 159 kts 250°
2026-04-14 16:53 37.94709 -79.12167 8500 ft 157 kts 250°
2026-04-14 16:53 37.94302 -79.13450 8499 ft 157 kts 250°
2026-04-14 16:53 37.93892 -79.14732 8497 ft 157 kts 250°
2026-04-14 16:54 37.93484 -79.16008 8493 ft 156 kts 250°
2026-04-14 16:54 37.93079 -79.17280 8496 ft 156 kts 250°
2026-04-14 16:54 37.92672 -79.18560 8492 ft 156 kts 250°
2026-04-14 16:54 37.92265 -79.19831 8494 ft 156 kts 251°
2026-04-14 16:55 37.91859 -79.21100 8495 ft 156 kts 251°
2026-04-14 16:55 37.91458 -79.22359 8490 ft 156 kts 251°
2026-04-14 16:55 37.91050 -79.23635 8495 ft 156 kts 250°
2026-04-14 16:55 37.90642 -79.24912 8493 ft 156 kts 251°
2026-04-14 16:56 37.90232 -79.26192 8497 ft 157 kts 251°
2026-04-14 16:56 37.89822 -79.27476 8499 ft 157 kts 250°
2026-04-14 16:56 37.89410 -79.28759 8498 ft 157 kts 250°
2026-04-14 16:56 37.89000 -79.30041 8505 ft 158 kts 250°
2026-04-14 16:57 37.88588 -79.31325 8498 ft 157 kts 250°
2026-04-14 16:57 37.88178 -79.32602 8498 ft 156 kts 250°
2026-04-14 16:57 37.87660 -79.33814 8498 ft 158 kts 240°
2026-04-14 16:57 37.87056 -79.34976 8496 ft 158 kts 241°
2026-04-14 16:58 37.86465 -79.36140 8496 ft 157 kts 241°
2026-04-14 16:58 37.85880 -79.37308 8508 ft 158 kts 241°
2026-04-14 16:58 37.85288 -79.38484 8511 ft 159 kts 241°
2026-04-14 16:58 37.84691 -79.39668 8507 ft 160 kts 241°
2026-04-14 16:59 37.84094 -79.40849 8506 ft 159 kts 240°
2026-04-14 16:59 37.83494 -79.42026 8506 ft 159 kts 240°
2026-04-14 16:59 37.82900 -79.43201 8518 ft 157 kts 242°
2026-04-14 16:59 37.82316 -79.44354 8512 ft 154 kts 241°
2026-04-14 17:00 37.81736 -79.45499 8510 ft 154 kts 243°
2026-04-14 17:00 37.81160 -79.46648 8510 ft 154 kts 242°
2026-04-14 17:00 37.80578 -79.47794 8510 ft 156 kts 242°
2026-04-14 17:00 37.79990 -79.48946 8514 ft 156 kts 241°
2026-04-14 17:01 37.79403 -79.50102 8510 ft 156 kts 242°
2026-04-14 17:01 37.78821 -79.51248 8513 ft 154 kts 242°
2026-04-14 17:01 37.78250 -79.52381 8515 ft 155 kts 241°
2026-04-14 17:01 37.77664 -79.53536 8514 ft 156 kts 242°
2026-04-14 17:02 37.77077 -79.54688 8513 ft 156 kts 242°
2026-04-14 17:02 37.76493 -79.55840 8512 ft 155 kts 242°
2026-04-14 17:02 37.75912 -79.56982 8513 ft 154 kts 242°
2026-04-14 17:02 37.75335 -79.58120 8511 ft 154 kts 242°
2026-04-14 17:03 37.74757 -79.59256 8516 ft 154 kts 242°
2026-04-14 17:03 37.74177 -79.60393 8516 ft 154 kts 242°
2026-04-14 17:03 37.73793 -79.61148 8516 ft 154 kts 242°
2026-04-14 17:03 37.73021 -79.62667 8506 ft 154 kts 241°
2026-04-14 17:04 37.72442 -79.63803 8505 ft 154 kts 241°
2026-04-14 17:04 37.71862 -79.64944 8505 ft 155 kts 241°
2026-04-14 17:04 37.71276 -79.66094 8514 ft 157 kts 240°
2026-04-14 17:04 37.70692 -79.67247 8517 ft 154 kts 241°
2026-04-14 17:05 37.70105 -79.68389 8515 ft 156 kts 240°
2026-04-14 17:05 37.69511 -79.69542 8550 ft 157 kts 240°
2026-04-14 17:05 37.69120 -79.70313 8551 ft 158 kts 241°
2026-04-14 17:05 37.68532 -79.71468 8555 ft 156 kts 240°
2026-04-14 17:06 37.67939 -79.72635 8557 ft 159 kts 241°
2026-04-14 17:06 37.67336 -79.73812 8554 ft 159 kts 241°
2026-04-14 17:06 37.66547 -79.75358 8546 ft 157 kts 242°
2026-04-14 17:06 37.66153 -79.76145 8549 ft 157 kts 241°
2026-04-14 17:07 37.65551 -79.77300 8542 ft 157 kts 240°
2026-04-14 17:07 37.64961 -79.78452 8540 ft 156 kts 241°
2026-04-14 17:07 37.64375 -79.79604 8538 ft 156 kts 241°
2026-04-14 17:07 37.63788 -79.80752 8531 ft 155 kts 241°
2026-04-14 17:08 37.63201 -79.81895 8524 ft 154 kts 241°
2026-04-14 17:08 37.62629 -79.83017 8516 ft 150 kts 241°
2026-04-14 17:08 37.62062 -79.84121 8528 ft 151 kts 241°
2026-04-14 17:08 37.61485 -79.85248 8529 ft 154 kts 240°
2026-04-14 17:09 37.60900 -79.86383 8525 ft 154 kts 240°
2026-04-14 17:09 37.60318 -79.87515 8538 ft 154 kts 240°
2026-04-14 17:09 37.59734 -79.88658 8541 ft 155 kts 241°
2026-04-14 17:09 37.59156 -79.89790 8542 ft 156 kts 240°
2026-04-14 17:10 37.58567 -79.90933 8543 ft 156 kts 240°
2026-04-14 17:10 37.57977 -79.92083 8541 ft 156 kts 241°
2026-04-14 17:10 37.57390 -79.93230 8540 ft 156 kts 240°
2026-04-14 17:10 37.56795 -79.94368 8545 ft 155 kts 240°
2026-04-14 17:11 37.56219 -79.95512 8544 ft 155 kts 242°
2026-04-14 17:11 37.55627 -79.96660 8546 ft 158 kts 240°
2026-04-14 17:11 37.55023 -79.97817 8551 ft 158 kts 240°
2026-04-14 17:11 37.54429 -79.98976 8548 ft 157 kts 241°
2026-04-14 17:12 37.53835 -80.00134 8548 ft 157 kts 240°
2026-04-14 17:12 37.53242 -80.01288 8552 ft 157 kts 240°
2026-04-14 17:12 37.52645 -80.02443 8546 ft 158 kts 240°
2026-04-14 17:12 37.52043 -80.03609 8552 ft 159 kts 240°
2026-04-14 17:13 37.51443 -80.04777 8555 ft 158 kts 240°
2026-04-14 17:13 37.50845 -80.05939 8552 ft 158 kts 240°
2026-04-14 17:13 37.50246 -80.07098 8552 ft 158 kts 240°
2026-04-14 17:13 37.49646 -80.08259 8552 ft 158 kts 240°
2026-04-14 17:14 37.49047 -80.09418 8551 ft 158 kts 240°
2026-04-14 17:14 37.48450 -80.10574 8546 ft 157 kts 240°
2026-04-14 17:14 37.47856 -80.11724 8548 ft 157 kts 240°
2026-04-14 17:14 37.47265 -80.12873 8522 ft 154 kts 238°
2026-04-14 17:15 37.46686 -80.13974 8558 ft 151 kts 240°
2026-04-14 17:15 37.46114 -80.15100 8558 ft 154 kts 240°
2026-04-14 17:15 37.45525 -80.16235 8556 ft 155 kts 240°
2026-04-14 17:15 37.44935 -80.17371 8557 ft 155 kts 240°
2026-04-14 17:16 37.44349 -80.18502 8559 ft 154 kts 240°
2026-04-14 17:16 37.43764 -80.19630 8556 ft 154 kts 241°
2026-04-14 17:16 37.43181 -80.20752 8557 ft 153 kts 241°
2026-04-14 17:16 37.42602 -80.21875 8555 ft 154 kts 241°
2026-04-14 17:17 37.42013 -80.23014 8555 ft 156 kts 239°
2026-04-14 17:17 37.41421 -80.24156 8553 ft 155 kts 239°
2026-04-14 17:17 37.40833 -80.25282 8553 ft 154 kts 240°
2026-04-14 17:17 37.40248 -80.26410 8548 ft 153 kts 239°
2026-04-14 17:18 37.39664 -80.27532 8551 ft 153 kts 240°
2026-04-14 17:18 37.39088 -80.28657 8546 ft 153 kts 240°
2026-04-14 17:18 37.38509 -80.29770 8550 ft 153 kts 241°
2026-04-14 17:18 37.37928 -80.30891 8549 ft 154 kts 240°
2026-04-14 17:19 37.37336 -80.32013 8552 ft 154 kts 240°
2026-04-14 17:19 37.36745 -80.33146 8553 ft 156 kts 240°
2026-04-14 17:19 37.36151 -80.34294 8549 ft 157 kts 240°
2026-04-14 17:19 37.35559 -80.35435 8549 ft 158 kts 240°
2026-04-14 17:20 37.34959 -80.36589 8549 ft 158 kts 240°
2026-04-14 17:20 37.34347 -80.37764 8549 ft 160 kts 240°
2026-04-14 17:20 37.33742 -80.38926 8548 ft 161 kts 240°
2026-04-14 17:20 37.33127 -80.40105 8548 ft 161 kts 240°
2026-04-14 17:21 37.32515 -80.41280 8539 ft 160 kts 239°
2026-04-14 17:21 37.31902 -80.42453 8537 ft 160 kts 239°
2026-04-14 17:21 37.31295 -80.43618 8536 ft 159 kts 241°
2026-04-14 17:21 37.30690 -80.44790 8535 ft 160 kts 239°
2026-04-14 17:22 37.30073 -80.45959 8536 ft 160 kts 239°
2026-04-14 17:22 37.29461 -80.47132 8533 ft 161 kts 239°
2026-04-14 17:22 37.28850 -80.48304 8534 ft 160 kts 240°
2026-04-14 17:22 37.28242 -80.49465 8536 ft 159 kts 239°
2026-04-14 17:23 37.27636 -80.50624 8537 ft 158 kts 239°
2026-04-14 17:23 37.27074 -80.51806 8533 ft 157 kts 242°
2026-04-14 17:23 37.26505 -80.52981 8612 ft 158 kts 241°
2026-04-14 17:23 37.25935 -80.54154 8605 ft 157 kts 241°
2026-04-14 17:24 37.25371 -80.55324 8608 ft 156 kts 241°
2026-04-14 17:24 37.24812 -80.56489 8608 ft 156 kts 242°
2026-04-14 17:24 37.24254 -80.57652 8609 ft 155 kts 242°
2026-04-14 17:24 37.23697 -80.58811 8606 ft 155 kts 242°
2026-04-14 17:25 37.23140 -80.59970 8608 ft 155 kts 242°
2026-04-14 17:25 37.22582 -80.61132 8603 ft 155 kts 241°
2026-04-14 17:25 37.22019 -80.62271 8613 ft 150 kts 240°
2026-04-14 17:25 37.21478 -80.63410 8610 ft 154 kts 243°
2026-04-14 17:26 37.20938 -80.64579 8602 ft 155 kts 241°
2026-04-14 17:26 37.20385 -80.65724 8599 ft 152 kts 240°
2026-04-14 17:26 37.19844 -80.66839 8601 ft 152 kts 242°
2026-04-14 17:26 37.19291 -80.67978 8603 ft 153 kts 242°
2026-04-14 17:27 37.18743 -80.69115 8602 ft 152 kts 242°
2026-04-14 17:27 37.18195 -80.70253 8601 ft 152 kts 242°
2026-04-14 17:27 37.17646 -80.71394 8601 ft 154 kts 242°
2026-04-14 17:27 37.17089 -80.72550 8603 ft 155 kts 242°
2026-04-14 17:28 37.16533 -80.73703 8599 ft 154 kts 241°
2026-04-14 17:28 37.15977 -80.74857 8598 ft 155 kts 241°
2026-04-14 17:28 37.15420 -80.76010 8600 ft 154 kts 241°
2026-04-14 17:28 37.14866 -80.77156 8600 ft 153 kts 241°
2026-04-14 17:29 37.14313 -80.78302 8601 ft 154 kts 241°
2026-04-14 17:29 37.13758 -80.79452 8603 ft 155 kts 241°
2026-04-14 17:29 37.13200 -80.80607 8603 ft 155 kts 242°
2026-04-14 17:29 37.12645 -80.81758 8600 ft 154 kts 241°
2026-04-14 17:30 37.12085 -80.82909 8596 ft 155 kts 241°
2026-04-14 17:30 37.11526 -80.84065 8588 ft 155 kts 242°
2026-04-14 17:30 37.10971 -80.85218 8588 ft 154 kts 241°
2026-04-14 17:30 37.10415 -80.86366 8584 ft 154 kts 242°
2026-04-14 17:31 37.09861 -80.87506 8590 ft 154 kts 241°
2026-04-14 17:31 37.09302 -80.88663 8588 ft 156 kts 242°
2026-04-14 17:31 37.08747 -80.89810 8590 ft 156 kts 242°
2026-04-14 17:31 37.08181 -80.90979 8585 ft 157 kts 241°
2026-04-14 17:32 37.07616 -80.92144 8588 ft 157 kts 241°
2026-04-14 17:32 37.07049 -80.93311 8585 ft 157 kts 241°
2026-04-14 17:32 37.06482 -80.94480 8583 ft 157 kts 242°
2026-04-14 17:32 37.05915 -80.95651 8582 ft 157 kts 241°
2026-04-14 17:33 37.05346 -80.96817 8584 ft 156 kts 241°
2026-04-14 17:33 37.04785 -80.97980 8580 ft 156 kts 241°
2026-04-14 17:33 37.04222 -80.99136 8580 ft 156 kts 242°
2026-04-14 17:34 37.03096 -81.01450 8574 ft 156 kts 240°
2026-04-14 17:34 37.02531 -81.02612 8588 ft 156 kts 241°
2026-04-14 17:34 37.01967 -81.03772 8591 ft 156 kts 241°
2026-04-14 17:34 37.01403 -81.04929 8597 ft 156 kts 241°
2026-04-14 17:35 37.00835 -81.06094 8604 ft 157 kts 241°
2026-04-14 17:35 37.00270 -81.07255 8609 ft 155 kts 241°
2026-04-14 17:35 36.99707 -81.08412 8612 ft 155 kts 242°
2026-04-14 17:35 36.99338 -81.09172 8610 ft 153 kts 242°
2026-04-14 17:36 36.98596 -81.10701 8621 ft 156 kts 241°
2026-04-14 17:36 36.98013 -81.11868 8627 ft 160 kts 241°
2026-04-14 17:36 36.97434 -81.13065 8628 ft 161 kts 241°
2026-04-14 17:36 36.96849 -81.14272 8635 ft 163 kts 241°
2026-04-14 17:37 36.96255 -81.15486 8638 ft 164 kts 242°
2026-04-14 17:37 36.95660 -81.16701 8639 ft 162 kts 241°
2026-04-14 17:37 36.95075 -81.17899 8639 ft 160 kts 241°
2026-04-14 17:37 36.94500 -81.19078 8639 ft 157 kts 242°
2026-04-14 17:38 36.93934 -81.20235 8644 ft 155 kts 242°
2026-04-14 17:38 36.93379 -81.21374 8645 ft 156 kts 241°
2026-04-14 17:38 36.92804 -81.22546 8649 ft 156 kts 242°
2026-04-14 17:38 36.92245 -81.23690 8650 ft 156 kts 241°
2026-04-14 17:39 36.91677 -81.24854 8657 ft 157 kts 241°
2026-04-14 17:39 36.91103 -81.26023 8654 ft 157 kts 241°
2026-04-14 17:39 36.90535 -81.27180 8655 ft 157 kts 240°
2026-04-14 17:39 36.89966 -81.28343 8660 ft 157 kts 241°
2026-04-14 17:40 36.89395 -81.29504 8659 ft 156 kts 241°
2026-04-14 17:40 36.88830 -81.30657 8657 ft 156 kts 241°
2026-04-14 17:40 36.88265 -81.31811 8649 ft 156 kts 241°
2026-04-14 17:40 36.87701 -81.32960 8649 ft 155 kts 241°
2026-04-14 17:41 36.87135 -81.34112 8648 ft 156 kts 241°
2026-04-14 17:41 36.86569 -81.35267 8650 ft 156 kts 241°
2026-04-14 17:41 36.86002 -81.36419 8650 ft 155 kts 241°
2026-04-14 17:41 36.85437 -81.37567 8649 ft 155 kts 240°
2026-04-14 17:42 36.84873 -81.38715 8652 ft 154 kts 242°
2026-04-14 17:42 36.84315 -81.39860 8648 ft 154 kts 241°
2026-04-14 17:42 36.83757 -81.40994 8644 ft 153 kts 240°
2026-04-14 17:42 36.83190 -81.42125 8639 ft 152 kts 242°
2026-04-14 17:43 36.82649 -81.43240 8649 ft 151 kts 241°
2026-04-14 17:43 36.82092 -81.44367 8646 ft 154 kts 240°
2026-04-14 17:43 36.81525 -81.45510 8643 ft 155 kts 241°
2026-04-14 17:43 36.80963 -81.46651 8641 ft 154 kts 241°
2026-04-14 17:44 36.80404 -81.47789 8630 ft 153 kts 241°
2026-04-14 17:44 36.79853 -81.48918 8632 ft 151 kts 241°
2026-04-14 17:44 36.79300 -81.50024 8623 ft 149 kts 240°
2026-04-14 17:44 36.78758 -81.51126 8623 ft 150 kts 241°
2026-04-14 17:45 36.78207 -81.52244 8621 ft 151 kts 241°
2026-04-14 17:45 36.77658 -81.53353 8623 ft 154 kts 240°
2026-04-14 17:45 36.77091 -81.54502 8625 ft 157 kts 241°
2026-04-14 17:45 36.76516 -81.55666 8622 ft 158 kts 240°
2026-04-14 17:46 36.75945 -81.56821 8583 ft 156 kts 240°
2026-04-14 17:46 36.75375 -81.57976 8581 ft 156 kts 241°
2026-04-14 17:46 36.74807 -81.59122 8582 ft 155 kts 241°
2026-04-14 17:46 36.74243 -81.60261 8577 ft 155 kts 240°
2026-04-14 17:47 36.73677 -81.61403 8582 ft 155 kts 241°
2026-04-14 17:47 36.73126 -81.62553 8585 ft 155 kts 245°
2026-04-14 17:47 36.72702 -81.63783 8586 ft 155 kts 249°
2026-04-14 17:47 36.72270 -81.65018 8587 ft 156 kts 248°
2026-04-14 17:48 36.71832 -81.66253 8594 ft 155 kts 248°
2026-04-14 17:48 36.71400 -81.67485 8596 ft 155 kts 249°
2026-04-14 17:48 36.70970 -81.68715 8597 ft 155 kts 248°
2026-04-14 17:48 36.70535 -81.69946 8600 ft 155 kts 248°
2026-04-14 17:49 36.70102 -81.71176 8589 ft 155 kts 248°
2026-04-14 17:49 36.69668 -81.72409 8591 ft 155 kts 248°
2026-04-14 17:49 36.69234 -81.73639 8590 ft 155 kts 247°
2026-04-14 17:49 36.68799 -81.74875 8591 ft 155 kts 247°
2026-04-14 17:50 36.68363 -81.76111 8594 ft 156 kts 248°
2026-04-14 17:50 36.67927 -81.77347 8594 ft 156 kts 247°
2026-04-14 17:50 36.67490 -81.78584 8597 ft 156 kts 247°
2026-04-14 17:50 36.67052 -81.79824 8604 ft 156 kts 248°
2026-04-14 17:51 36.66615 -81.81066 8602 ft 157 kts 247°
2026-04-14 17:51 36.66182 -81.82290 8607 ft 156 kts 248°
2026-04-14 17:51 36.65743 -81.83534 8611 ft 158 kts 248°
2026-04-14 17:51 36.65302 -81.84785 8717 ft 154 kts 248°
2026-04-14 17:52 36.64881 -81.85976 8944 ft 147 kts 248°
2026-04-14 17:52 36.64474 -81.87121 9160 ft 143 kts 248°
2026-04-14 17:52 36.64079 -81.88238 9389 ft 140 kts 247°
2026-04-14 17:52 36.63687 -81.89351 9618 ft 141 kts 248°
2026-04-14 17:53 36.63291 -81.90462 9847 ft 140 kts 247°
2026-04-14 17:53 36.62900 -81.91562 10075 ft 138 kts 247°
2026-04-14 17:53 36.62517 -81.92647 10294 ft 136 kts 247°
2026-04-14 17:53 36.62265 -81.93361 10433 ft 136 kts 247°
2026-04-14 17:54 36.61881 -81.94441 10612 ft 138 kts 248°
2026-04-14 17:54 36.61477 -81.95579 10622 ft 149 kts 247°
2026-04-14 17:54 36.61051 -81.96784 10633 ft 155 kts 248°
2026-04-14 17:54 36.60610 -81.98030 10632 ft 160 kts 246°
2026-04-14 17:55 36.60158 -81.99304 10635 ft 162 kts 246°
2026-04-14 17:55 36.59695 -82.00598 10633 ft 164 kts 247°
2026-04-14 17:55 36.59232 -82.01901 10630 ft 165 kts 247°
2026-04-14 17:55 36.58769 -82.03206 10626 ft 164 kts 247°
2026-04-14 17:56 36.58310 -82.04498 10626 ft 163 kts 247°
2026-04-14 17:56 36.57853 -82.05780 10624 ft 162 kts 247°
2026-04-14 17:56 36.57397 -82.07058 10621 ft 161 kts 247°
2026-04-14 17:56 36.56946 -82.08325 10619 ft 159 kts 247°
2026-04-14 17:57 36.56502 -82.09577 10615 ft 158 kts 247°
2026-04-14 17:57 36.56056 -82.10832 10580 ft 159 kts 247°
2026-04-14 17:57 36.55605 -82.12096 10584 ft 160 kts 247°
2026-04-14 17:57 36.55152 -82.13363 10587 ft 161 kts 247°
2026-04-14 17:58 36.54695 -82.14642 10587 ft 162 kts 247°
2026-04-14 17:58 36.54237 -82.15923 10590 ft 162 kts 247°
2026-04-14 17:58 36.53777 -82.17206 10593 ft 163 kts 247°
2026-04-14 17:58 36.53318 -82.18490 10595 ft 162 kts 247°
2026-04-14 17:59 36.52859 -82.19772 10598 ft 162 kts 247°
2026-04-14 17:59 36.52407 -82.21035 10599 ft 162 kts 247°
2026-04-14 17:59 36.51951 -82.22314 10600 ft 161 kts 247°
2026-04-14 17:59 36.51494 -82.23590 10601 ft 162 kts 247°
2026-04-14 18:00 36.51035 -82.24866 10606 ft 162 kts 247°
2026-04-14 18:00 36.50576 -82.26148 10607 ft 163 kts 247°
2026-04-14 18:00 36.49659 -82.28709 10601 ft 162 kts 246°
2026-04-14 18:01 36.49200 -82.29989 10609 ft 163 kts 246°
2026-04-14 18:01 36.48735 -82.31284 10607 ft 164 kts 246°
2026-04-14 18:01 36.48271 -82.32573 10610 ft 163 kts 246°
2026-04-14 18:01 36.47812 -82.33852 10608 ft 162 kts 246°
2026-04-14 18:02 36.47355 -82.35128 10605 ft 161 kts 246°
2026-04-14 18:02 36.46898 -82.36401 10604 ft 161 kts 246°
2026-04-14 18:02 36.46442 -82.37666 10604 ft 161 kts 246°
2026-04-14 18:02 36.45984 -82.38938 10601 ft 161 kts 246°
2026-04-14 18:03 36.45527 -82.40209 10604 ft 161 kts 247°
2026-04-14 18:03 36.45069 -82.41481 10602 ft 161 kts 246°
2026-04-14 18:03 36.44612 -82.42751 10603 ft 161 kts 246°
2026-04-14 18:03 36.44153 -82.44023 10602 ft 162 kts 247°
2026-04-14 18:04 36.43694 -82.45296 10603 ft 162 kts 246°
2026-04-14 18:04 36.43254 -82.46576 10600 ft 161 kts 254°
2026-04-14 18:04 36.43301 -82.47952 10600 ft 162 kts 280°
2026-04-14 18:04 36.43536 -82.49327 10601 ft 163 kts 278°
2026-04-14 18:05 36.43703 -82.50717 10561 ft 163 kts 275°
2026-04-14 18:05 36.43842 -82.52110 10565 ft 163 kts 275°
2026-04-14 18:05 36.43978 -82.53512 10568 ft 164 kts 275°
2026-04-14 18:05 36.44115 -82.54914 10566 ft 163 kts 275°
2026-04-14 18:06 36.44246 -82.56308 10569 ft 162 kts 275°
2026-04-14 18:06 36.44388 -82.57698 10571 ft 163 kts 275°
2026-04-14 18:06 36.44526 -82.59104 10483 ft 168 kts 275°
2026-04-14 18:06 36.44667 -82.60582 10282 ft 175 kts 275°
2026-04-14 18:07 36.44810 -82.62085 10074 ft 180 kts 275°
2026-04-14 18:07 36.44953 -82.63636 9852 ft 182 kts 275°
2026-04-14 18:07 36.45111 -82.65202 9627 ft 183 kts 276°
2026-04-14 18:07 36.45269 -82.66759 9398 ft 177 kts 275°
2026-04-14 18:08 36.45416 -82.68243 9180 ft 173 kts 275°
2026-04-14 18:08 36.45552 -82.69731 8933 ft 174 kts 274°
2026-04-14 18:08 36.45686 -82.71211 8707 ft 171 kts 275°
2026-04-14 18:08 36.45834 -82.72668 8578 ft 167 kts 275°
2026-04-14 18:09 36.45974 -82.74077 8576 ft 163 kts 275°
2026-04-14 18:09 36.46106 -82.75462 8573 ft 161 kts 275°
2026-04-14 18:09 36.46235 -82.76831 8572 ft 159 kts 275°
2026-04-14 18:09 36.46362 -82.78191 8574 ft 158 kts 274°
2026-04-14 18:10 36.46494 -82.79551 8572 ft 159 kts 274°
2026-04-14 18:10 36.46624 -82.80910 8572 ft 158 kts 274°
2026-04-14 18:10 36.46753 -82.82268 8571 ft 158 kts 274°
2026-04-14 18:10 36.46883 -82.83628 8569 ft 158 kts 275°
2026-04-14 18:11 36.47012 -82.84984 8570 ft 158 kts 274°
2026-04-14 18:11 36.47141 -82.86350 8572 ft 160 kts 274°
2026-04-14 18:11 36.47270 -82.87727 8570 ft 160 kts 274°
2026-04-14 18:11 36.47402 -82.89097 8570 ft 160 kts 274°
2026-04-14 18:12 36.47532 -82.90467 8568 ft 159 kts 274°
2026-04-14 18:12 36.47660 -82.91834 8568 ft 160 kts 274°
2026-04-14 18:12 36.47790 -82.93217 8481 ft 164 kts 274°
2026-04-14 18:12 36.47923 -82.94641 8358 ft 168 kts 274°
2026-04-14 18:13 36.48059 -82.96087 8244 ft 170 kts 275°
2026-04-14 18:13 36.48195 -82.97540 8117 ft 172 kts 274°
2026-04-14 18:13 36.48335 -82.99017 7997 ft 172 kts 275°
2026-04-14 18:13 36.48474 -83.00484 7876 ft 170 kts 274°
2026-04-14 18:14 36.48613 -83.01941 7760 ft 169 kts 275°
2026-04-14 18:14 36.48750 -83.03395 7637 ft 170 kts 274°
2026-04-14 18:14 36.48882 -83.04866 7518 ft 173 kts 274°
2026-04-14 18:14 36.49022 -83.06359 7393 ft 175 kts 274°
2026-04-14 18:15 36.49160 -83.07860 7280 ft 176 kts 274°
2026-04-14 18:15 36.49301 -83.09376 7171 ft 177 kts 275°
2026-04-14 18:15 36.49445 -83.10900 7044 ft 177 kts 275°
2026-04-14 18:15 36.49586 -83.12421 6927 ft 178 kts 274°
2026-04-14 18:16 36.49728 -83.13967 6823 ft 182 kts 274°
2026-04-14 18:16 36.49877 -83.15529 6691 ft 180 kts 275°
2026-04-14 18:16 36.50026 -83.17057 6576 ft 176 kts 274°
2026-04-14 18:16 36.50159 -83.18531 6559 ft 168 kts 274°
2026-04-14 18:17 36.50287 -83.19952 6555 ft 163 kts 274°
2026-04-14 18:17 36.50414 -83.21327 6560 ft 159 kts 274°
2026-04-14 18:17 36.50535 -83.22681 6554 ft 157 kts 274°
2026-04-14 18:17 36.50654 -83.24013 6558 ft 157 kts 274°
2026-04-14 18:18 36.50777 -83.25366 6557 ft 158 kts 274°
2026-04-14 18:18 36.50901 -83.26720 6557 ft 158 kts 274°
2026-04-14 18:18 36.51024 -83.28074 6560 ft 157 kts 274°
2026-04-14 18:18 36.51147 -83.29419 6559 ft 156 kts 274°
2026-04-14 18:19 36.51267 -83.30758 6559 ft 155 kts 274°
2026-04-14 18:19 36.51391 -83.32093 6563 ft 156 kts 274°
2026-04-14 18:19 36.51514 -83.33439 6562 ft 157 kts 274°
2026-04-14 18:19 36.51637 -83.34779 6564 ft 155 kts 274°
2026-04-14 18:20 36.51757 -83.36111 6566 ft 155 kts 273°
2026-04-14 18:20 36.51878 -83.37447 6568 ft 156 kts 274°
2026-04-14 18:20 36.51998 -83.38783 6568 ft 156 kts 274°
2026-04-14 18:20 36.52120 -83.40127 6570 ft 157 kts 274°
2026-04-14 18:21 36.52242 -83.41488 6570 ft 159 kts 274°
2026-04-14 18:21 36.52365 -83.42855 6569 ft 158 kts 274°
2026-04-14 18:21 36.52494 -83.44226 6555 ft 161 kts 274°
2026-04-14 18:21 36.52613 -83.45582 6562 ft 159 kts 273°
2026-04-14 18:22 36.52732 -83.46963 6563 ft 158 kts 274°
2026-04-14 18:22 36.52853 -83.48299 6565 ft 157 kts 273°
2026-04-14 18:22 36.52975 -83.49646 6562 ft 157 kts 273°
2026-04-14 18:22 36.53097 -83.51000 6566 ft 158 kts 273°
2026-04-14 18:23 36.53220 -83.52367 6562 ft 160 kts 275°
2026-04-14 18:23 36.53344 -83.53736 6569 ft 159 kts 274°
2026-04-14 18:23 36.53465 -83.55099 6528 ft 159 kts 272°
2026-04-14 18:23 36.53581 -83.56444 6567 ft 157 kts 273°
2026-04-14 18:24 36.53695 -83.57810 6561 ft 160 kts 275°
2026-04-14 18:24 36.53827 -83.59181 6556 ft 159 kts 274°
2026-04-14 18:24 36.53949 -83.60541 6559 ft 158 kts 274°
2026-04-14 18:24 36.54087 -83.61889 6561 ft 156 kts 275°
2026-04-14 18:25 36.54190 -83.63236 6556 ft 157 kts 270°
2026-04-14 18:25 36.54288 -83.64591 6553 ft 158 kts 273°
2026-04-14 18:25 36.54416 -83.65929 6560 ft 155 kts 272°
2026-04-14 18:25 36.54536 -83.67258 6562 ft 154 kts 274°
2026-04-14 18:26 36.54655 -83.68583 6566 ft 155 kts 273°
2026-04-14 18:26 36.54771 -83.69915 6566 ft 155 kts 273°
2026-04-14 18:26 36.54889 -83.71247 6567 ft 155 kts 272°
2026-04-14 18:26 36.55004 -83.72580 6567 ft 155 kts 272°
2026-04-14 18:27 36.55122 -83.73919 6566 ft 156 kts 273°
2026-04-14 18:27 36.55240 -83.75260 6567 ft 156 kts 273°
2026-04-14 18:27 36.55357 -83.76606 6564 ft 157 kts 272°
2026-04-14 18:27 36.55471 -83.77950 6562 ft 156 kts 273°
2026-04-14 18:28 36.55591 -83.79285 6567 ft 155 kts 273°
2026-04-14 18:28 36.55708 -83.80621 6567 ft 156 kts 273°
2026-04-14 18:28 36.55822 -83.81952 6566 ft 158 kts 273°
2026-04-14 18:28 36.55953 -83.83313 6565 ft 159 kts 271°
2026-04-14 18:29 36.56058 -83.84733 6497 ft 168 kts 273°
2026-04-14 18:29 36.56183 -83.86175 6385 ft 171 kts 273°
2026-04-14 18:29 36.56307 -83.87652 6259 ft 172 kts 273°
2026-04-14 18:29 36.56432 -83.89137 6137 ft 173 kts 274°
2026-04-14 18:30 36.56570 -83.90629 6012 ft 174 kts 274°
2026-04-14 18:30 36.56704 -83.92127 5894 ft 175 kts 273°
2026-04-14 18:30 36.56836 -83.93622 5766 ft 172 kts 273°
2026-04-14 18:30 36.56961 -83.95084 5643 ft 169 kts 271°
2026-04-14 18:31 36.57083 -83.96537 5525 ft 168 kts 273°
2026-04-14 18:31 36.57206 -83.97986 5403 ft 170 kts 273°
2026-04-14 18:31 36.57339 -83.99457 5280 ft 172 kts 274°
2026-04-14 18:31 36.57466 -84.00939 5155 ft 171 kts 273°
2026-04-14 18:32 36.57582 -84.02412 5033 ft 169 kts 273°
2026-04-14 18:32 36.57711 -84.03852 4911 ft 167 kts 273°
2026-04-14 18:32 36.57836 -84.05289 4791 ft 168 kts 271°
2026-04-14 18:32 36.57956 -84.06741 4668 ft 169 kts 272°
2026-04-14 18:33 36.58080 -84.08199 4522 ft 169 kts 271°
2026-04-14 18:33 36.58198 -84.09619 4507 ft 161 kts 273°
2026-04-14 18:33 36.58315 -84.10986 4507 ft 157 kts 272°
2026-04-14 18:34 36.58655 -84.15005 4494 ft 155 kts 272°
2026-04-14 18:34 36.58759 -84.16297 4489 ft 149 kts 274°
2026-04-14 18:34 36.58866 -84.17565 4506 ft 148 kts 271°
2026-04-14 18:35 36.58966 -84.18853 4504 ft 151 kts 272°
2026-04-14 18:35 36.59076 -84.20184 4492 ft 157 kts 272°
2026-04-14 18:35 36.59185 -84.21546 4517 ft 159 kts 272°
2026-04-14 18:35 36.59298 -84.22896 4499 ft 155 kts 272°
2026-04-14 18:36 36.59421 -84.24215 4504 ft 154 kts 272°
2026-04-14 18:36 36.59527 -84.25481 4509 ft 144 kts 270°
2026-04-14 18:36 36.59633 -84.26757 4506 ft 152 kts 271°
2026-04-14 18:36 36.59732 -84.28068 4505 ft 152 kts 271°
2026-04-14 18:37 36.59843 -84.29380 4506 ft 153 kts 273°
2026-04-14 18:37 36.59959 -84.30697 4504 ft 154 kts 270°
2026-04-14 18:37 36.60060 -84.32013 4495 ft 151 kts 271°
2026-04-14 18:37 36.60166 -84.33308 4500 ft 151 kts 272°
2026-04-14 18:38 36.60274 -84.34621 4499 ft 153 kts 272°
2026-04-14 18:38 36.60385 -84.35953 4509 ft 157 kts 271°
2026-04-14 18:38 36.60502 -84.37311 4508 ft 157 kts 271°
2026-04-14 18:38 36.60482 -84.38639 4510 ft 151 kts 251°
2026-04-14 18:39 36.59984 -84.39781 4511 ft 153 kts 228°
2026-04-14 18:39 36.59236 -84.40739 4507 ft 155 kts 226°
2026-04-14 18:39 36.58504 -84.41708 4507 ft 157 kts 227°
2026-04-14 18:39 36.57753 -84.42686 4511 ft 156 kts 226°
2026-04-14 18:40 36.56990 -84.43679 4505 ft 157 kts 226°
2026-04-14 18:40 36.56237 -84.44651 4337 ft 151 kts 226°
2026-04-14 18:40 36.55553 -84.45531 4148 ft 133 kts 226°
2026-04-14 18:40 36.54965 -84.46305 3974 ft 117 kts 226°
2026-04-14 18:41 36.54427 -84.47019 3831 ft 111 kts 226°
2026-04-14 18:41 36.53905 -84.47698 3701 ft 108 kts 227°
2026-04-14 18:41 36.53388 -84.48370 3556 ft 107 kts 226°
2026-04-14 18:41 36.52895 -84.49016 3424 ft 100 kts 228°
2026-04-14 18:42 36.52586 -84.49417 3367 ft 91 kts 227°
2026-04-14 18:42 36.52143 -84.50000 3237 ft 97 kts 229°
2026-04-14 18:42 36.51486 -84.50865 3052 ft 106 kts 230°
2026-04-14 18:42 36.51165 -84.51303 2959 ft 100 kts 226°
2026-04-14 18:43 36.50677 -84.51924 2827 ft 100 kts 227°
2026-04-14 18:43 36.50202 -84.52538 2698 ft 97 kts 226°
2026-04-14 18:43 36.49730 -84.53139 2576 ft 97 kts 226°
2026-04-14 18:43 36.49290 -84.53715 2445 ft 87 kts 227°
2026-04-14 18:44 36.48881 -84.54282 2339 ft 91 kts 223°
2026-04-14 18:44 36.48440 -84.54843 2197 ft 90 kts 221°
2026-04-14 18:44 36.48020 -84.55378 2080 ft 84 kts 221°
2026-04-14 18:44 36.47624 -84.55894 1975 ft 77 kts 228°
2026-04-14 18:45 36.47277 -84.56394 1895 ft 79 kts 223°
2026-04-14 18:45 36.46868 -84.56887 1800 ft 83 kts 223°
2026-04-14 18:45 36.46474 -84.57403 1673 ft 77 kts 223°
2026-04-14 18:45 36.46125 -84.57865 1539 ft 71 kts 225°
2026-04-14 18:46 36.45834 -84.58238 1523 ft 49 kts 227°
2026-04-14 18:46 36.45634 -84.58495 1529 ft 36 kts 226°
2026-04-14 18:46 36.45486 -84.58688 1532 ft 24 kts 229°
2026-04-14 18:46 36.45458 -84.58813 1536 ft 16 kts 314°
2026-04-14 18:47 36.45547 -84.58774 1535 ft 0 kts 93°